Stations météo

réclame
Mon MeteoGroup
Deelen, Pays-Bas (6275): Température de l'air & dewpoint: 09.08.2020 15:00:00 - 15.08.2020 15:00:00 (CEST)Deelen, Pays-Bas (6275): Température de l'air 5cm: 09.08.2020 15:00:00 - 15.08.2020 15:00:00 (CEST)Deelen, Pays-Bas (6275): Vitesse du vent & gusts: 09.08.2020 15:00:00 - 15.08.2020 15:00:00 (CEST)Deelen, Pays-Bas (6275): Direction du vent: 09.08.2020 15:00:00 - 15.08.2020 15:00:00 (CEST)Deelen, Pays-Bas (6275): reduced air pressure: 09.08.2020 15:00:00 - 15.08.2020 15:00:00 (CEST)Deelen, Pays-Bas (6275): visibility: 09.08.2020 15:00:00 - 15.08.2020 15:00:00 (CEST)Deelen, Pays-Bas (6275): Quantités de précipitations: 09.08.2020 15:00:00 - 15.08.2020 15:00:00 (CEST)
Date & Time tt [°C] td [°C] tt 5cm [°C] ff [km/h] ff [knt] fx [km/h] fx [knt] dd ppp [hPa] vv [km] rr [mm]
15.08.2020 15:00:00 27,4 17,3 29,7 4 2 11 6 - 1014,5 10 0,0
15.08.2020 14:00:00 26,6 17,3 28,1 5 3 14 8 WNW 1015,1 10 0,0
15.08.2020 13:00:00 26,0 17,7 30,6 4 2 18 10 - 1015,0 10 0,0
15.08.2020 12:00:00 25,0 17,8 27,8 8 4 18 10 WSW 1015,1 10 0,0
15.08.2020 11:00:00 23,4 18,7 26,8 8 4 11 6 - 1015,2 6 0,0
15.08.2020 10:00:00 21,1 19,2 22,9 8 4 14 8 W 1015,1 3,3 0,0
15.08.2020 09:00:00 19,8 19,2 20,2 5 3 14 8 SSW 1015,2 1,9 0,0
15.08.2020 08:00:00 19,1 19,0 19,3 4 2 11 6 - 1014,8 1,2 0,0
15.08.2020 07:00:00 19,3 19,2 19,3 5 3 11 6 W 1014,3 1,6 0,0
15.08.2020 06:00:00 19,4 19,3 19,2 4 2 7 4 - 1013,9 1,9 0,0
15.08.2020 05:00:00 19,0 18,9 18,5 2 1 4 2 - 1013,9 2,7 0,0
15.08.2020 04:00:00 17,8 17,8 16,1 4 2 4 2 ESE 1014,0 10 0,0
15.08.2020 03:00:00 17,9 17,8 16,5 4 2 4 2 ESE 1013,9 9 0,0
15.08.2020 02:00:00 18,6 18,0 17,8 4 2 7 4 - 1014,1 10 0,0
15.08.2020 01:00:00 19,5 18,4 18,4 4 2 7 4 NW 1014,2 10 0,0
15.08.2020 00:00:00 19,4 18,6 17,9 4 2 7 4 - 1014,0 10 0,0
14.08.2020 23:00:00 19,7 18,4 18,7 4 2 7 4 NW 1013,6 10 0,0
14.08.2020 22:00:00 21,5 19,0 20,2 2 1 11 6 NW 1013,3 10 0,0
14.08.2020 21:00:00 23,9 19,4 23,4 8 4 22 12 NW 1013,1 10 0,0
14.08.2020 20:00:00 25,5 18,9 25,2 13 7 25 14 WSW 1012,5 10 0,0
14.08.2020 19:00:00 26,7 18,3 26,9 16 9 25 14 SW 1012,1 10 0,0
14.08.2020 18:00:00 27,7 18,0 28,9 9 5 25 14 SW 1011,8 10 0,0
14.08.2020 17:00:00 27,8 17,3 29,1 11 6 29 16 SSW 1011,7 10 0,0
14.08.2020 16:00:00 28,9 17,3 32,2 15 8 29 16 S 1011,7 10 0,0
14.08.2020 15:00:00 28,2 17,5 30,2 18 10 29 16 - 1012,1 10 0,0
14.08.2020 14:00:00 28,6 17,3 32,0 13 7 29 16 S 1012,5 10 0,0
14.08.2020 13:00:00 27,3 17,9 30,2 9 5 18 10 - 1012,5 10 0,0
14.08.2020 12:00:00 27,3 19,0 29,3 8 4 18 10 - 1012,5 10 0,0
14.08.2020 11:00:00 25,7 19,5 28,0 8 4 14 8 S 1012,5 10 0,0
14.08.2020 10:00:00 23,9 20,8 24,4 9 5 14 8 S 1012,3 10 0,0
14.08.2020 09:00:00 21,4 20,3 21,5 5 3 11 6 SSE 1012,1 8 0,0
14.08.2020 08:00:00 19,5 19,4 19,2 2 1 11 6 - 1012,1 4,4 0,0
14.08.2020 07:00:00 19,1 19,0 18,5 5 3 7 4 E 1012,4 6 0,0
14.08.2020 06:00:00 19,3 19,2 18,5 4 2 7 4 - 1012,0 3,7 0,0
14.08.2020 05:00:00 19,9 19,6 19,6 4 2 7 4 - 1012,1 3,2 0,0
14.08.2020 04:00:00 20,0 19,6 19,2 4 2 11 6 - 1011,2 3,4 0,0
14.08.2020 03:00:00 20,3 20,2 19,9 2 1 11 6 - 1011,9 6 0,0
14.08.2020 02:00:00 20,1 19,9 19,8 5 3 7 4 S 1012,1 3,5 0,0
14.08.2020 01:00:00 20,4 20,3 19,7 4 2 11 6 - 1012,3 5 0,0
14.08.2020 00:00:00 20,5 20,4 20,1 8 4 11 6 S 1012,1 6 0,0
13.08.2020 23:00:00 20,8 20,5 20,4 9 5 22 12 ENE 1012,0 10 0,6
13.08.2020 22:00:00 21,3 20,6 20,9 5 3 18 10 ESE 1011,5 10 2,0
13.08.2020 21:00:00 22,5 20,8 22,1 9 5 25 14 SSE 1011,7 10 0,9
13.08.2020 20:00:00 25,4 20,9 24,6 8 4 22 12 SW 1011,2 10 0,3
13.08.2020 19:00:00 29,6 18,2 29,2 4 2 11 6 - 1010,5 10 0,0
13.08.2020 18:00:00 31,2 16,8 31,3 5 3 18 10 SSE 1010,3 10 0,0
13.08.2020 17:00:00 32,7 17,1 34,3 13 7 22 12 S 1010,5 10 0,0
13.08.2020 16:00:00 31,8 16,9 34,7 11 6 25 14 - 1011,0 10 0,0
13.08.2020 15:00:00 30,9 16,7 35,5 11 6 22 12 - 1011,3 10 0,0
13.08.2020 14:00:00 29,8 16,0 31,7 11 6 18 10 SSE 1011,7 10 0,0
13.08.2020 13:00:00 29,8 16,7 33,2 8 4 18 10 - 1011,7 10 0,0
13.08.2020 12:00:00 29,2 16,4 32,3 8 4 18 10 S 1011,7 10 0,0
13.08.2020 11:00:00 28,1 17,7 31,4 5 3 14 8 - 1011,7 10 0,0
13.08.2020 10:00:00 25,7 17,8 27,0 4 2 11 6 - 1011,8 10 0,0
13.08.2020 09:00:00 24,4 17,5 25,3 8 4 14 8 - 1011,7 10 0,0
13.08.2020 08:00:00 21,9 16,8 21,5 5 3 11 6 E 1011,8 10 0,0
13.08.2020 07:00:00 20,9 16,4 20,0 5 3 11 6 SE 1011,9 10 0,0
13.08.2020 06:00:00 19,9 16,5 18,0 5 3 11 6 ESE 1011,9 10 0,0
13.08.2020 05:00:00 19,9 16,9 18,6 8 4 11 6 ENE 1011,8 10 0,0
13.08.2020 04:00:00 21,6 17,1 19,8 5 3 11 6 - 1012,0 10 0,0
13.08.2020 03:00:00 21,2 16,9 19,5 8 4 11 6 E 1011,9 10 0,0
13.08.2020 02:00:00 21,5 16,7 20,0 4 2 11 6 - 1012,3 10 0,0
13.08.2020 01:00:00 24,2 16,9 21,9 8 4 11 6 E 1012,2 10 0,0
13.08.2020 00:00:00 23,4 16,6 21,0 4 2 7 4 - 1012,9 10 0,0
12.08.2020 23:00:00 25,5 15,9 24,1 8 4 11 6 - 1013,3 10 0,0
12.08.2020 22:00:00 26,8 15,6 25,4 9 5 18 10 E 1013,0 10 0,0
12.08.2020 21:00:00 29,0 15,3 28,2 16 9 29 16 E 1012,4 10 0,0
12.08.2020 20:00:00 31,2 14,9 31,0 13 7 22 12 ENE 1012,1 10 0,0
12.08.2020 19:00:00 31,8 15,4 32,6 11 6 25 14 E 1012,0 10 0,0
12.08.2020 18:00:00 32,1 15,2 33,2 11 6 22 12 - 1012,6 10 0,0
12.08.2020 17:00:00 33,1 16,2 36,6 13 7 29 16 - 1012,8 10 0,0
12.08.2020 16:00:00 32,9 15,6 36,3 13 7 29 16 - 1013,4 10 0,0
12.08.2020 15:00:00 32,7 16,1 35,7 11 6 25 14 - 1013,8 10 0,0
12.08.2020 14:00:00 33,0 15,7 36,3 11 6 25 14 - 1014,0 10 0,0
12.08.2020 13:00:00 32,3 15,5 36,3 11 6 25 14 - 1014,3 10 0,0
12.08.2020 12:00:00 31,6 15,9 34,6 9 5 18 10 - 1014,4 10 0,0
12.08.2020 11:00:00 29,9 17,7 32,7 8 4 14 8 SE 1014,6 10 0,0
12.08.2020 10:00:00 27,9 17,6 29,6 9 5 18 10 SE 1015,0 10 0,0
12.08.2020 09:00:00 25,9 18,0 25,3 4 2 11 6 - 1014,7 10 0,0
12.08.2020 08:00:00 23,8 18,0 23,2 0 0 7 4 N 1014,9 10 0,0
12.08.2020 07:00:00 23,2 17,4 22,3 4 2 11 6 - 1014,9 10 0,0
12.08.2020 06:00:00 23,1 17,6 22,3 8 4 11 6 E 1014,9 10 0,0
12.08.2020 05:00:00 23,3 18,0 22,1 5 3 14 8 - 1014,7 10 0,0
12.08.2020 04:00:00 22,5 18,3 20,6 5 3 11 6 E 1014,8 10 0,0
12.08.2020 03:00:00 22,2 18,2 21,0 2 1 11 6 - 1015,2 10 0,0
12.08.2020 02:00:00 23,6 18,1 22,6 4 2 11 6 - 1015,6 10 0,0
12.08.2020 01:00:00 24,7 18,2 23,9 9 5 25 14 ESE 1015,5 10 0,0
12.08.2020 00:00:00 26,6 17,8 26,2 16 9 25 14 SSE 1015,2 10 0,0
11.08.2020 23:00:00 27,5 17,4 25,4 4 2 14 8 - 1015,0 10 0,0
11.08.2020 22:00:00 25,9 17,9 24,4 5 3 7 4 E 1014,7 10 0,0
11.08.2020 21:00:00 26,6 18,5 25,2 8 4 11 6 ESE 1014,2 10 0,0
11.08.2020 20:00:00 26,0 19,5 25,3 5 3 25 14 NE 1014,1 10 0,0
11.08.2020 19:00:00 28,9 17,9 28,6 8 4 43 23 - 1014,7 10 0,0
11.08.2020 18:00:00 32,9 16,6 32,8 16 9 32 18 E 1013,8 10 0,0
11.08.2020 17:00:00 34,9 16,4 38,4 11 6 22 12 - 1013,9 10 0,0
11.08.2020 16:00:00 35,2 16,2 38,3 9 5 25 14 - 1014,1 10 0,0
11.08.2020 15:00:00 34,8 16,2 37,9 11 6 29 16 E 1014,5 10 0,0
11.08.2020 14:00:00 32,7 17,0 37,1 15 8 29 16 - 1014,9 10 0,0
11.08.2020 13:00:00 32,5 17,9 36,1 13 7 25 14 - 1015,1 10 0,0
11.08.2020 12:00:00 30,5 17,3 33,4 15 8 22 12 - 1015,3 10 0,0
11.08.2020 11:00:00 28,1 17,6 30,7 13 7 22 12 - 1015,5 10 0,0
11.08.2020 10:00:00 26,5 17,9 27,5 11 6 22 12 E 1015,4 10 0,0
11.08.2020 09:00:00 24,1 17,4 24,2 11 6 22 12 E 1015,4 10 0,0
11.08.2020 08:00:00 22,6 16,8 22,3 11 6 22 12 E 1015,1 10 0,0
11.08.2020 07:00:00 21,2 16,6 20,2 9 5 22 12 - 1015,2 10 0,0
11.08.2020 06:00:00 20,6 16,3 19,5 9 5 18 10 ENE 1014,9 10 0,0
11.08.2020 05:00:00 22,1 16,4 20,9 11 6 25 14 E 1015,0 10 0,0
11.08.2020 04:00:00 21,8 16,1 20,5 16 9 25 14 ENE 1015,1 10 0,0
11.08.2020 03:00:00 22,1 15,8 20,4 11 6 18 10 ENE 1015,2 10 0,0
11.08.2020 02:00:00 23,5 16,4 22,1 13 7 22 12 ENE 1015,2 10 0,0
11.08.2020 01:00:00 24,3 16,3 22,7 11 6 18 10 ENE 1015,5 10 0,0
11.08.2020 00:00:00 24,3 17,0 22,2 9 5 18 10 ENE 1015,3 10 0,0
10.08.2020 23:00:00 24,3 17,3 22,1 9 5 14 8 ENE 1015,2 10 0,0
10.08.2020 22:00:00 24,9 17,2 21,6 8 4 11 6 ENE 1014,9 10 0,0
10.08.2020 21:00:00 27,0 18,0 25,7 5 3 14 8 NE 1014,3 10 0,0
10.08.2020 20:00:00 30,4 15,7 30,4 9 5 25 14 ENE 1014,1 10 0,0
10.08.2020 19:00:00 30,9 15,8 31,4 15 8 25 14 ENE 1013,8 10 0,0
10.08.2020 18:00:00 31,2 15,1 32,0 13 7 25 14 - 1014,0 10 0,0
10.08.2020 17:00:00 31,8 15,9 33,5 11 6 32 18 - 1014,3 10 0,0
10.08.2020 16:00:00 33,2 15,0 36,2 15 8 29 16 - 1014,5 10 0,0
10.08.2020 15:00:00 33,1 15,1 36,8 15 8 32 18 - 1014,8 10 0,0
10.08.2020 14:00:00 32,1 15,5 36,2 21 11 36 19 - 1015,0 10 0,0
10.08.2020 13:00:00 30,8 16,3 33,4 13 7 32 18 E 1015,3 10 0,0
10.08.2020 12:00:00 29,7 17,4 33,8 13 7 22 12 - 1015,4 10 0,0
10.08.2020 11:00:00 28,1 17,1 30,6 11 6 25 14 E 1015,4 10 0,0
10.08.2020 10:00:00 25,7 17,3 27,2 13 7 22 12 E 1015,6 10 0,0
10.08.2020 09:00:00 24,1 17,4 24,2 15 8 25 14 ENE 1015,5 10 0,0
10.08.2020 08:00:00 22,0 16,9 21,8 9 5 18 10 ENE 1015,4 10 0,0
10.08.2020 07:00:00 19,7 16,7 18,4 8 4 14 8 ENE 1015,4 10 0,0
10.08.2020 06:00:00 20,2 16,4 18,2 5 3 14 8 E 1015,7 10 0,0
10.08.2020 05:00:00 20,4 16,5 19,3 8 4 14 8 E 1015,7 10 0,0
10.08.2020 04:00:00 20,9 16,8 19,2 5 3 14 8 E 1016,1 10 0,0
10.08.2020 03:00:00 21,3 16,9 20,0 9 5 14 8 E 1016,1 10 0,0
10.08.2020 02:00:00 21,0 17,2 19,7 8 4 14 8 ENE 1016,2 10 0,0
10.08.2020 01:00:00 22,3 17,2 21,1 8 4 14 8 E 1016,4 10 0,0
10.08.2020 00:00:00 22,9 17,3 21,5 9 5 18 10 ENE 1015,9 10 0,0
09.08.2020 23:00:00 23,8 17,5 22,2 8 4 14 8 - 1015,9 10 0,0
09.08.2020 22:00:00 26,6 17,7 25,3 9 5 25 14 E 1016,1 10 0,0
09.08.2020 21:00:00 28,4 17,5 27,0 21 11 29 16 NE 1015,8 10 0,0
09.08.2020 20:00:00 30,2 17,7 30,3 21 11 29 16 NE 1015,6 10 0,0
09.08.2020 19:00:00 31,4 17,7 33,0 18 10 29 16 - 1015,2 10 0,0
09.08.2020 18:00:00 33,1 16,5 35,5 11 6 22 12 ENE 1015,5 10 0,0
09.08.2020 17:00:00 32,8 16,2 36,1 9 5 22 12 ENE 1016,1 10 0,0
09.08.2020 16:00:00 33,1 16,7 36,5 11 6 25 14 - 1016,5 10 0,0
09.08.2020 15:00:00 32,8 17,5 36,5 15 8 25 14 - 1016,9 10 0,0

tt = Température de l'air
td = dewpoint
tt 5cm = Température de l'air 5cm
ff = Vitesse du vent
fx = gusts
dd = Direction du vent
ppp = reduced air pressure
vv = visibility
rr = Quantités de précipitations

stations d'obs. à proximité